Regional Weather Roundup
Issued by NWS Spokane, WA

Home | Current Version | Previous Version | Text Only | Print | Product List | Glossary On
Versions: 1 2 3 4 5 6 7 8 9 10 11 12 13 14 15 16 17 18 19 20 21 22 23 24 25 26 27 28 29 30 31 32 33 34 35 36 37 38 39 40 41 42 43 44 45 46 47 48 49 50
000
NZUS01 KOTX 271210
RWROTX
EASTERN WASHINGTON/NORTHERN IDAHO ROUNDUP
NATIONAL WEATHER SERVICE, SPOKANE WA
500 AM PDT WED MAY 27 2015

Note: "fair" indicated few or no clouds below 12,000 feet with no
significant weather and/or obstructions to visibility.

...NORTHEAST WASHINGTON AND NORTHERN IDAHO PANHANDLE...

CITY           SKY/WX    TMP DP  RH WIND       PRES   REMARKS
SPOKANE INTL   PTCLDY    49  46  90 S3        30.00R
SPOKANE DOWNTO PTCLDY    48  47  96 NE3       30.01R FOG
COEUR D ALENE  PTCLDY    45  45 100 NE3       30.01R
DEER PARK      PTCLDY    45  44  97 MISG      30.00S
SANDPOINT      CLOUDY    48  48 100 CALM      30.01R
BONNERS FERRY  FAIR      50  48  93 E5        30.01R

...SOUTHEAST WASHINGTON AND SOUTHERN IDAHO PANHANDLE...

CITY           SKY/WX    TMP DP  RH WIND       PRES   REMARKS
WALLA WALLA    MOCLDY    57  48  72 S6        29.99R
PULLMAN/MOSCOW PTCLDY    41  38  89 CALM      30.01S
LEWISTON       CLOUDY    52  48  86 CALM      29.99S
LOWELL           N/A     49  46  90 NW3       30.03R

...COLUMBIA BASIN...

CITY           SKY/WX    TMP DP  RH WIND       PRES   REMARKS
EPHRATA        CLEAR     57  49  74 NW7       29.98S
MOSES LAKE     CLEAR     50  48  93 NE7       30.00R
TRI CITIES     LGT RAIN  57  54  89 E3        29.98S
HERMISTON      PTCLDY    53  48  83 SW5       29.98S
PENDLETON      CLOUDY    52  48  86 S6        30.00R

...EAST SLOPES CASCADES...

CITY           SKY/WX    TMP DP  RH WIND       PRES   REMARKS
THE DALLES     CLEAR     56  47  71 VRB6      30.01R
YAKIMA         CLOUDY    56  48  74 W7        30.00S
ELLENSBURG     CLEAR     49  45  86 CALM      30.01S
WENATCHEE      CLEAR     57  48  72 NW5       30.00R
OMAK           CLEAR     48  45  89 W3        30.00F

...SOUTHERN BRITISH COLUMBIA...

CITY           SKY/WX    TMP DP  RH WIND       PRES   REMARKS
PENTICTON      PTCLDY    48  46  93 VRB2      30.01S
CRANBROOK      MOCLDY    52  46  82 NW5       30.04S

...WESTERN MONTANA...

CITY           SKY/WX    TMP DP  RH WIND       PRES   REMARKS
MISSOULA       MOCLDY    45  42  89 CALM      30.04S

...NEIGHBORING CITIES...

CITY           SKY/WX    TMP DP  RH WIND       PRES   REMARKS
SEATTLE        MOCLDY    53  51  93 CALM      30.06S
CALGARY        CLOUDY    54  45  71 NE3       30.05S



USA.gov is the U.S. government's official web portal to all federal, state and local government web resources and services.